User: anonymous
Location: CNYAC Observatory
(43.2150°N, 74.9500°W)
Time: 05:05:17
(UTC-04:00)
Language:

Meteor 1-22 Rocket - Orbit

View from above orbital plane
View from above orbital plane
View from above satellite
View from above satellite

Ground track
Ground track

The orbit data is extracted from the following two-line orbital elements,

1 08294U 75087B   14237.72034009 -.00000094  00000-0 -59267-4 0   485
2 08294 081.2201 302.9808 0105747 058.4850 093.3884 14.08503232   354
Epoch (UTC): 25 August 2014 17:17:17
Eccentricity: 0.0105747
inclination: 81.2201°
perigee height: 788 km
apogee height: 941 km
right ascension of ascending node: 302.9808°
argument of perigee: 58.4850°
revolutions per day: 14.08503232
mean anomaly at epoch: 93.3884°
orbit number at epoch: 35

The dashed part of the orbit path shows where the satellite is in the earth's shadow,  

DLR